Regional Weather Roundup
Issued by NWS

Home | Current Version | Previous Version | Text Only | Print | Product List | Glossary Off
Versions: 1 2 3 4 5 6 7 8 9 10 11 12 13 14 15 16 17 18 19 20 21 22 23 24 25 26 27 28 29 30 31 32 33 34 35 36 37 38 39 40 41 42 43 44 45 46 47 48 49 50

000
ASUS43 KBIS 250410
RWRND

NORTH DAKOTA REGIONAL WEATHER ROUNDUP
NATIONAL WEATHER SERVICE BISMARCK ND
1100 PM CDT SUN SEP 24 2017

NOTE: "FAIR" INDICATES FEW OR NO CLOUDS BELOW 12,000 FEET WITH NO
SIGNIFICANT WEATHER AND/OR OBSTRUCTIONS TO VISIBILITY.


NDZ001>003-009>011-017-250500-
NORTHWEST NORTH DAKOTA

CITY           SKY/WX    TMP DP  RH WIND       PRES   REMARKS
WILLISTON      CLOUDY    47  42  83 CALM      30.14R
MINOT          CLOUDY    49  45  86 W7        30.10R
MINOT AFB      CLOUDY    47  45  92 NW6       30.09R
$$

NDZ018>021-031>035-040>046-250500-
SOUTHWEST NORTH DAKOTA

CITY           SKY/WX    TMP DP  RH WIND       PRES   REMARKS
BISMARCK       PTCLDY    46  45  96 NW3       30.11R
DICKINSON      CLOUDY    44  42  93 CALM      30.11S
GARRISON         N/A     45  44  97 NW7       30.10S
HETTINGER ARPT CLOUDY    44  41  89 NW6       30.14S
$$

NDZ004>008-012>016-024-026-027-054-250500-
NORTHEAST NORTH DAKOTA

CITY           SKY/WX    TMP DP  RH WIND       PRES   REMARKS
GRAND FORKS    LGT RAIN  51  51 100 NW13      30.01R FOG
GRND FRKS AFB  CLOUDY    50  50 100 NW8       30.03R
DEVILS LAKE    CLOUDY    48  46  93 NW9       30.07R
$$

NDZ022-023-025-028>030-036>039-047>053-250500-
SOUTHEAST NORTH DAKOTA

CITY           SKY/WX    TMP DP  RH WIND       PRES   REMARKS
FARGO          CLOUDY    52  50  93 NW12      30.01S
JAMESTOWN      CLOUDY    49  46  90 NW8       30.06R
$$





USA.gov is the U.S. government's official web portal to all federal, state and local government web resources and services.